Year,Month,Day,Hour,Minute,Value (Times are PST for temperature in C)
2007,03,17,00,00,6.40
2007,03,17,00,05,6.40
2007,03,17,00,10,6.40
2007,03,17,00,15,6.60
2007,03,17,00,20,6.60
2007,03,17,00,25,6.40
2007,03,17,00,30,6.40
2007,03,17,00,35,6.40
2007,03,17,00,40,6.40
2007,03,17,00,45,6.40
2007,03,17,00,50,6.60
2007,03,17,00,55,6.60
2007,03,17,01,00,6.60
2007,03,17,01,05,6.60
2007,03,17,01,10,6.60
2007,03,17,01,15,6.70
2007,03,17,01,20,6.70
2007,03,17,01,25,6.80
2007,03,17,01,30,6.80
2007,03,17,01,35,6.80
2007,03,17,01,40,6.60
2007,03,17,01,45,6.60
2007,03,17,01,50,6.60
2007,03,17,01,55,6.60
2007,03,17,02,00,6.70
2007,03,17,02,05,6.60
2007,03,17,02,10,6.60
2007,03,17,02,15,6.60
2007,03,17,02,20,6.60
2007,03,17,02,25,6.60
2007,03,17,02,30,6.40
2007,03,17,02,35,6.40
2007,03,17,02,40,6.30
2007,03,17,02,45,6.20
2007,03,17,02,50,6.20
2007,03,17,02,55,6.20
2007,03,17,03,00,6.20
2007,03,17,03,05,6.20
2007,03,17,03,10,6.20
2007,03,17,03,15,6.20
2007,03,17,03,20,6.20
2007,03,17,03,25,6.20
2007,03,17,03,30,6.20
2007,03,17,03,35,6.20
2007,03,17,03,40,6.20
2007,03,17,03,45,6.20
2007,03,17,03,50,6.20
2007,03,17,03,55,6.20
2007,03,17,04,00,6.30
2007,03,17,04,05,6.20
2007,03,17,04,10,6.20
2007,03,17,04,15,6.40
2007,03,17,04,20,6.40
2007,03,17,04,25,6.40
2007,03,17,04,30,6.20
2007,03,17,04,35,6.20
2007,03,17,04,40,6.20
2007,03,17,04,45,6.20
2007,03,17,04,50,6.20
2007,03,17,04,55,6.20
2007,03,17,05,00,6.30
2007,03,17,05,05,6.30
2007,03,17,05,10,6.30
2007,03,17,05,15,6.40
2007,03,17,05,20,6.40
2007,03,17,05,25,6.40
2007,03,17,05,30,6.40
2007,03,17,05,35,6.60
2007,03,17,05,40,6.80
2007,03,17,05,45,6.60
2007,03,17,05,50,6.60
2007,03,17,05,55,6.70
2007,03,17,06,00,6.60
2007,03,17,06,05,6.60
2007,03,17,06,10,6.40
2007,03,17,06,15,6.40
2007,03,17,06,20,6.40
2007,03,17,06,25,6.60
2007,03,17,06,30,6.70
2007,03,17,06,35,6.90
2007,03,17,06,40,7.10
2007,03,17,06,45,7.20
2007,03,17,06,50,7.00
2007,03,17,06,55,7.10
2007,03,17,07,00,7.40
2007,03,17,07,05,7.80
2007,03,17,07,10,8.20
2007,03,17,07,15,8.40
2007,03,17,07,20,8.60
2007,03,17,07,25,8.00
2007,03,17,07,30,7.30
2007,03,17,07,35,6.80
2007,03,17,07,40,6.80
2007,03,17,07,45,6.80
2007,03,17,07,50,6.80
2007,03,17,07,55,6.80
2007,03,17,08,00,6.80
2007,03,17,08,05,6.80
2007,03,17,08,10,6.70
2007,03,17,08,15,6.80
2007,03,17,08,20,6.80
2007,03,17,08,25,6.80
2007,03,17,08,30,7.10
2007,03,17,08,35,7.50
2007,03,17,08,40,7.70
2007,03,17,08,45,7.60
2007,03,17,08,50,7.50
2007,03,17,08,55,7.30
2007,03,17,09,00,7.30
2007,03,17,09,05,7.40
2007,03,17,09,10,7.60
2007,03,17,09,15,7.90
2007,03,17,09,20,8.20
2007,03,17,09,25,8.50
2007,03,17,09,30,8.70
2007,03,17,09,35,8.90
2007,03,17,09,40,9.10
2007,03,17,09,45,9.20
2007,03,17,09,50,9.20
2007,03,17,09,55,9.20
2007,03,17,10,00,8.90
2007,03,17,10,05,8.50
2007,03,17,10,10,8.20
2007,03,17,10,15,8.20
2007,03,17,10,20,8.10
2007,03,17,10,25,8.10
2007,03,17,10,30,8.20
2007,03,17,10,35,8.20
2007,03,17,10,40,8.30
2007,03,17,10,45,8.40
2007,03,17,10,50,8.40
2007,03,17,10,55,8.60
2007,03,17,11,00,8.70
2007,03,17,11,05,8.70
2007,03,17,11,10,8.80
2007,03,17,11,15,8.90
2007,03,17,11,20,8.90
2007,03,17,11,25,8.80
2007,03,17,11,30,8.90
2007,03,17,11,35,9.00
2007,03,17,11,40,9.10
2007,03,17,11,45,9.20
2007,03,17,11,50,9.40
2007,03,17,11,55,9.60
2007,03,17,12,00,9.80
2007,03,17,12,05,9.90
2007,03,17,12,10,10.10
2007,03,17,12,15,10.20
2007,03,17,12,20,10.30
2007,03,17,12,25,10.60
2007,03,17,12,30,10.70
2007,03,17,12,35,10.90
2007,03,17,12,40,11.10
2007,03,17,12,45,11.30
2007,03,17,12,50,11.40
2007,03,17,12,55,11.40
2007,03,17,13,00,11.40
2007,03,17,13,05,11.40
2007,03,17,13,10,11.60
2007,03,17,13,15,11.60
2007,03,17,13,20,11.60
2007,03,17,13,25,11.40
2007,03,17,13,30,11.40
2007,03,17,13,35,11.40
2007,03,17,13,40,11.40
2007,03,17,13,45,11.40
2007,03,17,13,50,11.40
2007,03,17,13,55,11.40
2007,03,17,14,00,11.60
2007,03,17,14,05,11.60
2007,03,17,14,10,11.60
2007,03,17,14,15,11.60
2007,03,17,14,20,11.60
2007,03,17,14,25,11.40
2007,03,17,14,30,11.40
2007,03,17,14,35,11.40
2007,03,17,14,40,11.40
2007,03,17,14,45,11.20
2007,03,17,14,50,10.80
2007,03,17,14,55,10.40
2007,03,17,15,00,10.20
2007,03,17,15,05,10.20
2007,03,17,15,10,10.20
2007,03,17,15,15,10.20
2007,03,17,15,20,10.40
2007,03,17,15,25,10.40
2007,03,17,15,30,10.60
2007,03,17,15,35,10.60
2007,03,17,15,40,10.60
2007,03,17,15,45,10.70
2007,03,17,15,50,10.80
2007,03,17,15,55,10.90
2007,03,17,16,00,10.90
2007,03,17,16,05,10.80
2007,03,17,16,10,10.80
2007,03,17,16,15,10.90
2007,03,17,16,20,10.90
2007,03,17,16,25,11.10
2007,03,17,16,30,11.10
2007,03,17,16,35,11.10
2007,03,17,16,40,11.10
2007,03,17,16,45,11.10
2007,03,17,16,50,11.30
2007,03,17,16,55,11.30
2007,03,17,17,00,11.30
2007,03,17,17,05,11.30
2007,03,17,17,10,11.30
2007,03,17,17,15,11.10
2007,03,17,17,20,11.10
2007,03,17,17,25,10.90
2007,03,17,17,30,10.90
2007,03,17,17,35,10.90
2007,03,17,17,40,11.10
2007,03,17,17,45,11.20
2007,03,17,17,50,11.30
2007,03,17,17,55,11.30
2007,03,17,18,00,11.30
2007,03,17,18,05,11.30
2007,03,17,18,10,11.30
2007,03,17,18,15,11.30
2007,03,17,18,20,11.30
2007,03,17,18,25,11.20
2007,03,17,18,30,11.20
2007,03,17,18,35,11.10
2007,03,17,18,40,11.10
2007,03,17,18,45,11.10
2007,03,17,18,50,10.90
2007,03,17,18,55,10.90
2007,03,17,19,00,10.70
2007,03,17,19,05,10.60
2007,03,17,19,10,10.60
2007,03,17,19,15,10.40
2007,03,17,19,20,10.40
2007,03,17,19,25,10.40
2007,03,17,19,30,10.40
2007,03,17,19,35,10.30
2007,03,17,19,40,10.30
2007,03,17,19,45,10.20
2007,03,17,19,50,10.20
2007,03,17,19,55,10.20
2007,03,17,20,00,10.20
2007,03,17,20,05,10.10
2007,03,17,20,10,10.10
2007,03,17,20,15,10.10
2007,03,17,20,20,10.10
2007,03,17,20,25,9.90
2007,03,17,20,30,9.90
2007,03,17,20,35,9.90
2007,03,17,20,40,9.90
2007,03,17,20,45,9.80
2007,03,17,20,50,9.70
2007,03,17,20,55,9.70
2007,03,17,21,00,9.70
2007,03,17,21,05,9.70
2007,03,17,21,10,9.70
2007,03,17,21,15,9.70
2007,03,17,21,20,9.70
2007,03,17,21,25,9.70
2007,03,17,21,30,9.70
2007,03,17,21,35,9.70
2007,03,17,21,40,9.70
2007,03,17,21,45,9.70
2007,03,17,21,50,9.70
2007,03,17,21,55,9.60
2007,03,17,22,00,9.60
2007,03,17,22,05,9.60
2007,03,17,22,10,9.60
2007,03,17,22,15,9.60
2007,03,17,22,20,9.60
2007,03,17,22,25,9.60
2007,03,17,22,30,9.50
2007,03,17,22,35,9.50
2007,03,17,22,40,9.40
2007,03,17,22,45,9.40
2007,03,17,22,50,9.40
2007,03,17,22,55,9.30
2007,03,17,23,00,9.20
2007,03,17,23,05,9.20
2007,03,17,23,10,9.10
2007,03,17,23,15,9.10
2007,03,17,23,20,9.10
2007,03,17,23,25,9.00
2007,03,17,23,30,8.90
2007,03,17,23,35,8.90
2007,03,17,23,40,8.90
2007,03,17,23,45,8.90
2007,03,17,23,50,8.90
2007,03,17,23,55,8.90
